Regional Weather Roundup
Issued by NWS

Home | Current Version | Previous Version | Text Only | Print | Product List | Glossary On
Versions: 1 2 3 4 5 6 7 8 9 10 11 12 13 14 15 16 17 18 19 20 21 22 23 24 25 26 27 28 29 30 31 32 33 34 35 36 37 38 39 40 41 42 43 44 45 46 47 48 49 50
000
ASUS45 KABQ 300710
RWRNM
NEW MEXICO REGIONAL WEATHER ROUNDUP
NATIONAL WEATHER SERVICE ALBUQUERQUE NM
100 AM MDT FRI SEP 30 2016

NOTE: "FAIR" MEANS FEW OR NO CLOUDS BELOW 12,000 FEET AGL WITH NO
       SIGNIFICANT WEATHER OR OBSTRUCTIONS TO VISION.

      THIS PRODUCT IS RELEASED AS TWO VERSIONS.  ONE VERSION NEAR
      THE TOP OF THE HOUR CONTAINING PRELIMINARY DATA FROM ALBUQUERQUE
      AND OTHER STATIONS.  A FINAL VERSION WITH ADDITIONAL DATA IS
      ISSUED ABOUT 10 MINUTES AFTER THE HOUR.

NMZ501-503-504-510>518-300800-
NORTHWEST PLATEAU/NORTHCENTRAL MOUNTAINS

CITY           SKY/WX    TMP DP  RH WIND       PRES   REMARKS
FARMINGTON     FAIR      54  52  93 CALM      30.37F
LOS ALAMOS     FAIR      56  44  63 S3        30.45F
SANTA FE       MOCLDY    56  48  74 CALM      30.41F
TAOS           FAIR      54  37  54 CALM      30.45F
ANGEL FIRE     CLOUDY    46  39  76 CALM      30.51F

$$
NMZ402-403-502-505>509-300800-
WESTCENTRAL MOUNTAINS/SOUTHWEST MOUNTAINS

CITY           SKY/WX    TMP DP  RH WIND       PRES   REMARKS
GALLUP         MOCLDY    47  46  97 S3        30.41F FOG
SILVER CITY    CLOUDY    59  54  85 NE10      30.36S

$$
NMZ407-409-411-412-300800-
SOUTHERN DESERTS

CITY           SKY/WX    TMP DP  RH WIND       PRES   REMARKS
DEMING         CLOUDY    67  56  67 N13       30.30F
LAS CRUCES     CLOUDY    70  44  38 E7        30.32R
HOLLOMAN AFB   CLOUDY    71  45  39 SW7       30.28R
ALAMOGORDO     MOCLDY    68  43  40 N8        30.29F
T OR C         LGT RAIN  60  55  83 NW16      30.39F

$$
NMZ519>523-300800-
CENTRAL VALLEYS/CENTRAL HIGHLANDS

CITY           SKY/WX    TMP DP  RH WIND       PRES   REMARKS
ALBUQUERQUE    MOCLDY    59  58  96 SE12      30.39F
DOUBLE EAGLE   DRIZZLE   56  55  95 SW10      30.43S
MORIARTY ARPT  CLOUDY    54  46  72 CALM      30.43S
CLINES CORNERS FAIR      51  43  74 W7        30.45F
BELEN          RAIN      60  60 100 SW9       30.41R
SOCORRO        LGT RAIN  60  56  88 CALM      30.41S

$$
NMZ524>526-539-540-300800-
SOUTHCENTRAL MOUNTAINS

CITY           SKY/WX    TMP DP  RH WIND       PRES   REMARKS
RUIDOSO        FAIR      55  41  58 CALM      30.47F

$$
NMZ527>531-300800-
NORTHEAST HIGHLANDS/NORTHEAST PLAINS

CITY           SKY/WX    TMP DP  RH WIND       PRES   REMARKS
LAS VEGAS      FAIR      54  43  66 S13       30.41F
RATON          FAIR      52  33  48 W3        30.36F
CLAYTON        FAIR      50  45  83 SW7       30.31F

$$
NMZ532>537-300800-
EASTCENTRAL PLAINS

CITY           SKY/WX    TMP DP  RH WIND       PRES   REMARKS
TUCUMCARI      FAIR      58  47  66 SW7       30.29F
CANNON AFB     CLOUDY    56  50  82 S3        30.33F
CLOVIS AIRPORT FAIR      54  45  71 S6        30.33S

$$
NMZ028-029-538-300800-
SOUTHEAST PLAINS

CITY           SKY/WX    TMP DP  RH WIND       PRES   REMARKS
ROSWELL        FAIR      62  47  57 S7        30.31S
ARTESIA        FAIR      59  52  77 S6        30.31F
CARLSBAD       FAIR      58  51  78 S8        30.29S
HOBBS          FAIR      55  50  82 CALM      30.33S


$$



USA.gov is the U.S. government's official web portal to all federal, state and local government web resources and services.